[[{"header":{"parameterUnit":"m.s-1","parameterCategory":1,"la1":30.2991,"la2":30.254,"lo1":-89.0895,"lo2":-89.0444,"dy":0.0017,"dx":0.0017,"nx":28,"ny":28,"refTime":"2024-02-17T03:00:00:Z","depth":0,"parameterNumber":2,"parameterNumberName":"U-component_of_WINDS"},"data":[0,0,0,0,0,0,0,0,0,0,0,0,0,0,0,0,0,0,0,0,0,0,0,0,0,0,0,0,0,0,0,0,0,0,0,0,0,0,0,0,0,0,0,0,0,0,0,0,0,0,0,0,0,0,0,0,0,0,-1.1345,-1.1346,0,-1.1402,-1.1403,-1.1403,-1.1391,-1.139,-1.1389,-1.1388,-1.1448,-1.1451,-1.1453,0,0,0,0,0,0,0,0,0,0,0,0,0,-1.1227,-1.1229,-1.1345,-1.1346,-1.1347,-1.1402,-1.1403,-1.1404,-1.1391,-1.139,-1.1389,-1.1387,-1.1448,-1.1451,-1.1454,0,0,0,0,0,0,0,0,0,0,0,0,0,-1.1281,-1.123,-1.1345,-1.1347,-1.1348,-1.1402,-1.1403,-1.1404,-1.1392,-1.139,-1.1388,-1.1387,-1.1446,-1.145,-1.1454,-1.151,0,0,-1.1466,-1.1468,0,0,0,0,0,0,0,0,-1.1278,-1.1285,-1.1346,-1.1347,-1.1348,-1.1388,-1.1383,-1.144,-1.1392,-1.1375,-1.1388,-1.1386,-1.143,-1.1435,-1.1449,-1.1513,-1.1516,-1.1466,-1.1469,-1.147,-1.1472,0,0,0,0,0,0,0,-1.1274,-1.1283,-1.1368,-1.1347,-1.1348,-1.1346,-1.1351,-1.1394,-1.1411,-1.1376,-1.1376,-1.1382,-1.143,-1.1445,-1.145,-1.1517,-1.1466,-1.147,-1.1472,-1.1474,-1.163,-1.1632,0,0,0,0,0,0,-1.1269,-1.128,-1.1366,-1.1369,-1.1308,-1.1349,-1.1356,-1.1377,-1.141,-1.1414,-1.1384,-1.1382,-1.144,-1.1446,-1.1453,-1.1521,-1.147,-1.1474,-1.1476,-1.1628,-1.163,-1.1632,0,0,0,0,0,0,-1.1267,-1.1277,-1.1364,-1.1324,-1.1335,-1.1353,-1.1377,-1.1379,-1.1394,-1.1416,-1.1419,-1.1396,-1.1438,-1.1447,-1.1496,-1.1523,-1.1476,-1.1479,-1.1626,-1.1629,-1.1631,-1.1659,0,0,0,0,0,0,-1.1263,-1.1276,-1.1298,-1.1325,-1.1337,-1.1406,-1.1378,-1.1381,-1.1401,-1.1398,-1.1428,-1.1432,-1.1438,-1.149,-1.15,-1.1528,-1.1483,-1.1624,-1.1627,-1.1631,-1.1655,-1.1662,-1.1668,0,0,0,0,0,-1.1259,-1.1303,-1.1299,-1.1309,-1.1364,-1.1407,-1.1415,-1.142,-1.1403,-1.1425,-1.1438,-1.1431,-1.1518,-1.1495,-1.1506,-1.1535,-1.1622,-1.1626,-1.163,-1.1653,-1.1661,-1.1667,0,0,0,0,0,0,-1.128,-1.1307,-1.1302,-1.1356,-1.138,-1.1405,-1.1433,-1.1428,-1.1457,-1.1454,-1.146,-1.1467,-1.1517,-1.1531,-1.1505,-1.1592,-1.1568,-1.1574,-1.1581,-1.1589,-1.1595,-1.1591,-1.1486,0,0,0,0,0,-1.129,-1.1323,-1.1345,-1.1391,-1.1402,-1.1416,-1.1435,-1.1437,-1.1461,-1.1471,-1.1489,-1.1513,-1.1546,-1.1568,-1.16,-1.1657,-1.1664,-1.1682,-1.1688,-1.1693,-1.1699,-1.1731,-1.174,-1.1646,-1.1646,-1.1646,0,0,-1.1313,-1.1332,-1.1352,-1.1395,-1.1413,-1.1447,-1.1424,-1.1461,-1.1487,-1.1477,-1.1525,-1.1538,-1.1566,-1.1619,-1.1644,-1.1633,-1.1726,-1.1698,-1.1702,-1.1705,-1.1736,-1.1745,-1.1753,-1.1649,-1.1648,-1.1648,0,0,-1.1372,-1.1389,-1.1429,-1.1448,-1.1475,-1.1484,-1.1493,-1.152,-1.1528,-1.1575,-1.1569,-1.1599,-1.1656,-1.1676,-1.1694,-1.176,-1.1754,-1.1769,-1.1802,-1.1833,-1.184,-1.1847,-1.1871,-1.188,-1.1775,-1.1775,-1.1775,0,-1.1397,-1.1448,-1.1451,-1.1488,-1.1508,-1.1499,-1.154,-1.1558,-1.1595,-1.1609,-1.1595,-1.1666,-1.1684,-1.1742,-1.1758,-1.1772,-1.1784,-1.1767,-1.1839,-1.1845,-1.1851,-1.1875,-1.1884,-1.1777,-1.1777,-1.1777,-1.1776,0,-1.1478,-1.1512,-1.1542,-1.1577,-1.1599,-1.1638,-1.1648,-1.167,-1.1669,-1.1679,-1.1728,-1.1749,-1.1785,-1.1798,-1.1799,-1.1857,-1.1849,-1.1837,-1.1813,-1.1862,-1.1884,-1.1893,-1.178,-1.1779,-1.1778,-1.1778,0,0,-1.1553,-1.1588,-1.1599,-1.1615,-1.1644,-1.1671,-1.171,-1.1744,-1.1764,-1.1789,-1.1822,-1.1869,-1.1858,-1.1878,-1.188,-1.1907,-1.1959,-1.1892,-1.1893,-1.1905,-1.2025,-1.2035,-1.2045,-1.1954,-1.1956,-1.1957,-1.2023,0,-1.1615,-1.1683,-1.1687,-1.1748,-1.1781,-1.1773,-1.1807,-1.1829,-1.1839,-1.1868,-1.1879,-1.1913,-1.1895,-1.1907,-1.1933,-1.1947,-1.1983,-1.1942,-1.1987,-1.1988,-1.1981,-1.2057,-1.2068,-1.2129,-1.2032,-1.2033,-1.2034,0,-1.1698,-1.1725,-1.179,-1.1814,-1.1828,-1.1858,-1.189,-1.1918,-1.1943,-1.1948,-1.197,-1.1968,-1.2008,-1.1982,-1.2037,-1.2009,-1.2027,-1.2036,-1.2039,-1.2045,-1.2015,-1.2066,-1.2148,-1.2158,-1.2048,-1.2046,-1.2045,0,-1.1748,-1.18,-1.1846,-1.186,-1.1889,-1.191,-1.1924,-1.1947,-1.1967,-1.1994,-1.2008,-1.204,-1.2058,-1.2083,-1.209,-1.207,-1.2145,-1.2119,-1.2152,-1.2152,-1.217,-1.2169,-1.2258,-1.2179,-1.2179,-1.2179,-1.2178,0,-1.1818,-1.1859,-1.1869,-1.1897,-1.1942,-1.1945,-1.199,-1.2002,-1.2022,-1.2053,-1.2048,-1.2077,-1.2084,-1.2114,-1.212,-1.2166,-1.2173,-1.218,-1.2181,-1.2181,-1.218,-1.2194,-1.2191,-1.2181,-1.2181,-1.218,-1.218,0,-1.1882,-1.1891,-1.194,-1.1963,-1.197,-1.2002,-1.2023,-1.205,-1.2058,-1.2098,-1.2107,-1.2121,-1.2157,-1.2166,-1.2208,-1.2212,-1.2266,-1.2263,-1.2258,-1.2258,-1.2291,-1.2288,-1.2393,-1.2407,-1.2318,-1.2319,-1.2319,0,-1.1928,-1.1958,-1.1985,-1.2005,-1.2019,-1.2051,-1.2071,-1.2075,-1.2097,-1.2127,-1.2151,-1.2185,-1.2214,-1.2271,-1.2286,-1.2318,-1.2316,-1.2351,-1.2321,-1.2321,-1.2318,-1.2317,-1.2321,-1.2357,-1.2358,-1.2359,-1.2359,0,-1.2008,-1.201,-1.2039,-1.207,-1.2094,-1.2119,-1.2142,-1.2159,-1.2166,-1.2191,-1.2227,-1.2248,-1.2292,-1.2327,-1.2359,-1.2373,-1.2368,-1.2368,-1.2377,-1.2379,-1.2375,-1.2379,-1.2275,-1.2366,-1.2365,-1.2365,-1.2364,-1.2364,-1.2065,-1.2092,-1.2114,-1.2147,-1.2165,-1.2187,-1.2213,-1.2225,-1.2255,-1.229,-1.229,-1.233,-1.2353,-1.2396,-1.2412,-1.2444,-1.2433,-1.2447,-1.2451,-1.2454,-1.2458,-1.2369,-1.2449,-1.2449,-1.2449,-1.2449,-1.2449,0,-1.2145,-1.2159,-1.2189,-1.2222,-1.2247,-1.2238,-1.2264,-1.2286,-1.2321,-1.2343,-1.237,-1.2412,-1.2445,-1.2462,-1.2495,-1.2517,-1.2515,-1.2526,-1.2525,-1.2528,-1.2464,-1.2453,-1.2526,-1.2526,-1.2526,-1.2526,-1.2526,-1.2526,-1.219,-1.2236,-1.2241,-1.2295,-1.2308,-1.2347,-1.2362,-1.2382,-1.24,-1.2446,-1.2473,-1.2483,-1.2503,-1.2538,-1.2569,-1.2572,-1.2586,-1.2598,-1.2601,-1.2541,-1.2533,-1.2525,-1.2515,-1.26,-1.26,-1.2662,-1.2663,-1.2663]},{"header":{"parameterUnit":"m.s-1","parameterCategory":1,"la1":30.2991,"la2":30.254,"lo1":-89.0895,"lo2":-89.0444,"dy":0.0017,"dx":0.0017,"nx":28,"ny":28,"refTime":"2024-02-17T03:00:00:Z","depth":0,"parameterNumber":3,"parameterNumberName":"V-component_of_WINDS"},"data":[0,0,0,0,0,0,0,0,0,0,0,0,0,0,0,0,0,0,0,0,0,0,0,0,0,0,0,0,0,0,0,0,0,0,0,0,0,0,0,0,0,0,0,0,0,0,0,0,0,0,0,0,0,0,0,0,0,0,-5.8118,-5.8119,0,-5.818,-5.818,-5.8181,-5.814,-5.8138,-5.8137,-5.8135,-5.8193,-5.8196,-5.82,0,0,0,0,0,0,0,0,0,0,0,0,0,-5.796,-5.7963,-5.8118,-5.8119,-5.812,-5.818,-5.818,-5.8181,-5.8141,-5.8138,-5.8136,-5.8134,-5.8192,-5.8196,-5.82,0,0,0,0,0,0,0,0,0,0,0,0,0,-5.8026,-5.7964,-5.8118,-5.8107,-5.8106,-5.8179,-5.818,-5.8181,-5.8141,-5.8138,-5.8136,-5.8133,-5.8191,-5.8196,-5.82,-5.8287,0,0,-5.8216,-5.8218,0,0,0,0,0,0,0,0,-5.8022,-5.8032,-5.8107,-5.8108,-5.8107,-5.815,-5.8146,-5.8217,-5.8142,-5.8128,-5.8135,-5.8132,-5.8181,-5.8186,-5.8204,-5.8289,-5.8292,-5.8216,-5.8219,-5.8221,-5.8222,0,0,0,0,0,0,0,-5.8018,-5.8029,-5.8142,-5.8109,-5.8108,-5.8097,-5.8103,-5.8159,-5.8169,-5.8129,-5.8126,-5.8134,-5.818,-5.8199,-5.8205,-5.8293,-5.8216,-5.822,-5.8223,-5.8225,-5.8452,-5.8455,0,0,0,0,0,0,-5.8015,-5.8025,-5.814,-5.8144,-5.8057,-5.8102,-5.8109,-5.8139,-5.8168,-5.817,-5.8136,-5.8132,-5.8192,-5.8199,-5.8207,-5.831,-5.8221,-5.8226,-5.8228,-5.8449,-5.8453,-5.8456,0,0,0,0,0,0,-5.8012,-5.8025,-5.8138,-5.8084,-5.8097,-5.8108,-5.8141,-5.8141,-5.8161,-5.8174,-5.8175,-5.8155,-5.819,-5.82,-5.8267,-5.8311,-5.8228,-5.8232,-5.8445,-5.845,-5.8454,-5.8516,0,0,0,0,0,0,-5.8007,-5.8025,-5.8058,-5.8085,-5.8101,-5.8199,-5.8144,-5.8145,-5.817,-5.8164,-5.8191,-5.8193,-5.8189,-5.826,-5.8272,-5.8316,-5.8236,-5.8441,-5.8447,-5.8453,-5.851,-5.8523,-5.8533,0,0,0,0,0,-5.8002,-5.8072,-5.806,-5.8075,-5.8143,-5.8202,-5.821,-5.8205,-5.8173,-5.8207,-5.8216,-5.8192,-5.8304,-5.8268,-5.8281,-5.8327,-5.8439,-5.8446,-5.8452,-5.8505,-5.852,-5.8533,0,0,0,0,0,0,-5.8049,-5.8076,-5.8063,-5.8144,-5.8171,-5.8195,-5.8237,-5.8221,-5.8256,-5.825,-5.824,-5.8247,-5.8318,-5.8329,-5.8287,-5.8412,-5.8366,-5.8376,-5.8402,-5.8416,-5.8427,-5.8423,-5.824,0,0,0,0,0,-5.8069,-5.8116,-5.8136,-5.8206,-5.822,-5.8227,-5.8252,-5.8246,-5.8272,-5.8283,-5.8296,-5.8322,-5.8363,-5.839,-5.8428,-5.8512,-5.8517,-5.855,-5.8561,-5.857,-5.8579,-5.8624,-5.8639,-5.8479,-5.8478,-5.8478,0,0,-5.811,-5.8131,-5.8161,-5.8216,-5.8236,-5.8283,-5.8236,-5.8288,-5.8322,-5.829,-5.8356,-5.8366,-5.8394,-5.847,-5.8504,-5.8482,-5.8624,-5.8579,-5.8586,-5.859,-5.8632,-5.8648,-5.8661,-5.8483,-5.8482,-5.8482,0,0,-5.821,-5.8231,-5.8292,-5.8313,-5.8345,-5.8349,-5.8364,-5.839,-5.8396,-5.8462,-5.8439,-5.8479,-5.855,-5.8571,-5.859,-5.8699,-5.8679,-5.8712,-5.877,-5.8814,-5.8827,-5.8838,-5.8876,-5.889,-5.872,-5.872,-5.872,0,-5.8258,-5.833,-5.8325,-5.8379,-5.8404,-5.8378,-5.8439,-5.846,-5.8502,-5.8519,-5.8493,-5.8582,-5.8599,-5.8679,-5.8706,-5.8723,-5.8739,-5.8709,-5.8825,-5.8837,-5.8847,-5.8884,-5.8898,-5.8724,-5.8724,-5.8723,-5.8723,0,-5.8386,-5.8436,-5.8481,-5.8525,-5.8554,-5.8612,-5.8614,-5.8644,-5.8636,-5.8642,-5.8708,-5.8728,-5.877,-5.8788,-5.878,-5.8868,-5.8853,-5.8827,-5.8781,-5.8866,-5.89,-5.8914,-5.873,-5.8728,-5.8727,-5.8726,0,0,-5.8517,-5.8558,-5.8575,-5.8594,-5.8628,-5.8665,-5.8721,-5.8764,-5.879,-5.882,-5.8865,-5.8926,-5.8902,-5.8925,-5.8918,-5.8957,-5.9042,-5.8925,-5.8926,-5.8947,-5.914,-5.916,-5.9176,-5.9028,-5.9031,-5.9033,-5.9137,0,-5.8619,-5.8719,-5.8716,-5.8808,-5.8854,-5.883,-5.8878,-5.8903,-5.891,-5.8949,-5.8956,-5.9,-5.8965,-5.8978,-5.9015,-5.9024,-5.908,-5.9016,-5.907,-5.9072,-5.9064,-5.9194,-5.9215,-5.9313,-5.9151,-5.9153,-5.9155,0,-5.8752,-5.8788,-5.8885,-5.8913,-5.8932,-5.8975,-5.9015,-5.9052,-5.908,-5.9082,-5.9108,-5.9095,-5.915,-5.9103,-5.9178,-5.9134,-5.9155,-5.9163,-5.9166,-5.9171,-5.9119,-5.9202,-5.9344,-5.9358,-5.9176,-5.9174,-5.9173,0,-5.8838,-5.8911,-5.8979,-5.8996,-5.9029,-5.9061,-5.9076,-5.91,-5.9126,-5.916,-5.9177,-5.9215,-5.9237,-5.9266,-5.9264,-5.923,-5.934,-5.9293,-5.9343,-5.9343,-5.9367,-5.9366,-5.9514,-5.9381,-5.9381,-5.9381,-5.938,0,-5.8953,-5.9013,-5.9018,-5.906,-5.9126,-5.9122,-5.9187,-5.9198,-5.9221,-5.9263,-5.9244,-5.9284,-5.9278,-5.9318,-5.9316,-5.9378,-5.9388,-5.939,-5.9389,-5.9392,-5.9392,-5.9406,-5.94,-5.9384,-5.9384,-5.9383,-5.9382,0,-5.9061,-5.9067,-5.9139,-5.9165,-5.9173,-5.9221,-5.9242,-5.9281,-5.9286,-5.934,-5.9352,-5.9361,-5.9406,-5.9407,-5.9458,-5.9457,-5.9533,-5.9524,-5.9525,-5.9523,-5.9573,-5.9569,-5.9736,-5.9758,-5.9611,-5.9612,-5.9613,0,-5.9134,-5.918,-5.9211,-5.9239,-5.9257,-5.9302,-5.9329,-5.9326,-5.9354,-5.9389,-5.9424,-5.9468,-5.9503,-5.9576,-5.9586,-5.9625,-5.9617,-5.9673,-5.9623,-5.9624,-5.9618,-5.9615,-5.962,-5.9683,-5.9684,-5.9686,-5.9687,0,-5.9262,-5.9263,-5.9304,-5.9346,-5.938,-5.9412,-5.9442,-5.9465,-5.9466,-5.9498,-5.9546,-5.9573,-5.9627,-5.9671,-5.9709,-5.9722,-5.9704,-5.9703,-5.9716,-5.972,-5.9719,-5.972,-5.9552,-5.9699,-5.9698,-5.9697,-5.9696,-5.9696,-5.9355,-5.9395,-5.9424,-5.947,-5.9493,-5.9521,-5.9559,-5.9571,-5.9611,-5.9655,-5.965,-5.9703,-5.9728,-5.9778,-5.9795,-5.9835,-5.9815,-5.9835,-5.984,-5.9845,-5.9851,-5.9713,-5.9841,-5.9841,-5.9841,-5.9841,-5.984,0,-5.9483,-5.9501,-5.9543,-5.9587,-5.9623,-5.9605,-5.9637,-5.9668,-5.9715,-5.9742,-5.9777,-5.9831,-5.9874,-5.9887,-5.9928,-5.9957,-5.995,-5.9968,-5.9966,-5.9969,-5.9866,-5.985,-5.9973,-5.9973,-5.9973,-5.9973,-5.9973,-5.9973,-5.9554,-5.9621,-5.9626,-5.9703,-5.972,-5.9773,-5.9793,-5.9819,-5.984,-5.9902,-5.9938,-5.9947,-5.9968,-6.001,-6.0047,-6.005,-6.0066,-6.0087,-6.0086,-5.999,-5.9976,-5.9964,-5.9949,-6.0091,-6.0091,-6.0186,-6.0187,-6.0188]}]]